User: anonymous
Location: Irma
(52.9170°N, 111.2330°W)
Time: 05:21:12
(UTC-06:00)
Language:

Meteor 1-24 Rocket - Orbit

View from above orbital plane
View from above orbital plane
View from above satellite
View from above satellite

Ground track
Ground track

The orbit data is extracted from the following two-line orbital elements,

1 08800U 76032B   14292.80123036 -.00000121  00000-0 -73042-4 0  1454
2 08800 081.2505 082.2510 0095083 055.2966 052.3187 14.09977001981298
Epoch (UTC): 19 October 2014 19:13:46
Eccentricity: 0.0095083
inclination: 81.2505°
perigee height: 790 km
apogee height: 928 km
right ascension of ascending node: 82.2510°
argument of perigee: 55.2966°
revolutions per day: 14.09977001
mean anomaly at epoch: 52.3187°
orbit number at epoch: 98129

The dashed part of the orbit path shows where the satellite is in the earth's shadow,  

DLR